Location: Unspecified
(37.7830°S, 0.0000°E)
Time: 03:57:58
(UTC+00:00)

Tiangong 2 - Visible Passes

Search period start: 22 May 2019 00:00
Search period end: 01 June 2019 00:00
Orbit: 379 x 387 km, 42.8° (Epoch: 21 May)

Date Brightness Start Highest point End Pass type
(mag) Time Alt. Az. Time Alt. Az. Time Alt. Az.
23 May 3.0 06:26:21 10° NW 06:29:17 33° NNE 06:32:15 10° E visible
24 May 3.9 05:27:08 10° N 05:29:25 18° NE 05:31:42 10° E visible
25 May 1.6 06:02:39 10° NW 06:05:50 60° NNE 06:09:01 10° ESE visible
26 May 2.6 05:05:43 32° NNE 05:05:52 32° NNE 05:08:48 10° E visible
27 May 1.0 05:41:15 37° WNW 05:42:24 81° SSW 05:45:40 10° ESE visible
28 May 3.8 04:44:24 20° ESE 04:44:24 20° ESE 04:45:34 10° ESE visible
28 May 1.8 06:16:36 13° WSW 06:19:11 39° S 06:22:16 10° ESE visible
29 May 1.8 05:19:36 45° SSE 05:19:36 45° SSE 05:22:13 10° ESE visible
30 May 2.1 05:54:41 25° SW 05:55:53 33° S 05:58:52 10° ESE visible
31 May 3.5 04:57:31 20° SE 04:57:31 20° SE 04:58:44 10° ESE visible
31 May 2.2 06:29:48 10° WSW 06:32:48 34° S 06:35:48 10° ESE visible
